Regional Weather Roundup
Issued by NWS Portland, ME

Current Version | Previous Version | Text Only | Print | Product List | Glossary On
Versions: 1 2 3 4 5 6 7 8 9 10 11 12 13 14 15 16 17 18 19 20 21 22 23 24 25 26 27 28 29 30 31 32 33 34 35 36 37 38 39 40 41 42 43 44 45 46 47 48 49 50
000
ASUS41 KGYX 041505
RWRGYX
WEATHER ROUNDUP FOR MAINE AND NEW HAMPSHIRE
NATIONAL WEATHER SERVICE GRAY ME
1100 AM EDT MON MAY 04 2015

MEZ002-005-006-010-012-015-018-020-021-024-026-027-029-041600-
MAINE

CITY           SKY/WX    TMP DP  RH WIND       PRES   REMARKS
PORTLAND       SUNNY     70  50  49 E6        30.15S
SANFORD        SUNNY     79  43  27 SW9G17    30.15S
BAR HARBOR     SUNNY     59  48  67 S10       30.16S
WISCASSET      SUNNY     66  47  50 SE7       30.16S
ROCKLAND       SUNNY     55  46  71 S8        30.14F
FRYEBURG       SUNNY     79  40  24 VRB7      30.12F
LEWISTONAUBURN SUNNY     72  48  43 S7        30.14S
AUGUSTA        SUNNY     70  45  40 VRB6      30.13F
WATERVILLE     SUNNY     68  48  49 SE6       30.10F
BANGOR         MOSUNNY   65  46  50 S10       30.12F
GREENVILLE       N/A     71  37  28 VRB5      30.08F
MILLINOCKET    SUNNY     72  44  36 SE7       30.08F
HOULTON        SUNNY     73  42  32 SW10G16   30.06F
PRESQUE ISLE   SUNNY     73  39  29 SW13G18   30.03S
FRENCHVILLE    SUNNY     70  43  37 SE12      29.99F
CARIBOU        SUNNY     74  42  31 S9        30.01F
$$

NHZ002-005-008-009-011-012-014-041600-
NEW HAMPSHIRE

CITY           SKY/WX    TMP DP  RH WIND       PRES   REMARKS
ROCHESTER      SUNNY     79  41  25 VRB7      30.14F
NASHUA         SUNNY     80  46  30 VRB5      30.16F
MANCHESTER     MOSUNNY   77  45  32 S7        30.14F
CONCORD        SUNNY     76  43  30 CALM      30.15F
LACONIA        SUNNY     75  43  31 SW15      30.12F
PLYMOUTH       FAIR      74  49  41 E3        30.13F
BERLIN         SUNNY     76  40  27 W8        30.12F
WHITEFIELD     SUNNY     76  39  26 W8        30.13F
JAFFREY        SUNNY     75  40  28 S12       30.19F
KEENE          SUNNY     72  45  37 SW7       30.18F
LEBANON        SUNNY     74  45  35 S3        30.13F
MT WASHINGTON  MOSUNNY   46  34  61 W22         N/A
$$

VTZ005-007-008-041600-
VERMONT

CITY           SKY/WX    TMP DP  RH WIND       PRES   REMARKS
ST JOHNSBURY     N/A     72  42  34 MISG      30.10F
MONTPELIER     SUNNY     76  36  23 SW8G17    30.15F
BURLINGTON     MOSUNNY   76  40  27 S14       30.08F
$$

MAZ007-012-024-CTZ003-RIZ002-NYZ038-NYZ072-041600-
SOUTHERN NEW ENGLAND AND NY

CITY           SKY/WX    TMP DP  RH WIND       PRES   REMARKS
BOSTON         MOSUNNY   73  47  39 S9        30.19S
WORCESTER      SUNNY     76  37  24 SW9       30.21S
NANTUCKET      SUNNY     58  49  72 S12       30.26S
PROVIDENCE     MOSUNNY   61  50  67 SE9       30.22S
HARTFORD       MOSUNNY   73  47  39 S7        30.18F
ALBANY         MOSUNNY   72  43  35 S7        30.15F
NEW YORK CITY  MOSUNNY   74  48  39 NE5       30.21S
$$

ANZ081-ANZ082-ANZ150-NHZ014-MEZ023>029-041600-
COASTAL MARINE OBSERVATIONS

STATION/POSITION TIME  TEMP    WIND        PRES    WAVE
                       AIR SEA DIR/SP/G            HT/PER
                 (UTC) (F)     (DEG/KT/KT) (MB)    (FT/S)
$$

.............KEY..............
   WCI - WIND CHILL
   TC  - TEMPERATURE IN CELSIUS
   VSB - VISIBILITY IN MILES
   HX  - HEAT INDEX
   FAIR- INDICATES FEW OR NO CLOUDS BELOW 12,000 FT, WITH NO
         SIGNIFICANT WEATHER AND/OR OBSTRUCTIONS TO VISIBILITY.




USA.gov is the U.S. government's official web portal to all federal, state and local government web resources and services.